Wind_Speed
12 11 10 9 9 7 4 3 2 3 6 8 9 10 13 14 15 17 19 19 19 19 19 18 17 17 16 15 14 13 11 9 6 5 3 2 3 4 5 5 5 5 5 5
12 12 11 11 10 7 6 5 5 7 9 9 8 8 11 14 15 16 18 19 19 19 18 17 16 16 16 16 15 14 11 7 4 4 2 3 4 4 5 5 6 6 6 6
13 12 13 12 10 9 9 8 7 8 9 9 9 7 9 11 13 15 17 19 19 18 17 16 15 15 16 16 14 13 11 7 4 3 2 3 4 5 6 6 6 5 6 6
15 15 14 12 10 9 8 9 8 8 8 9 10 9 10 11 12 15 16 18 19 18 18 17 15 16 16 14 12 12 10 6 4 3 2 3 4 5 6 6 5 5 5 6
17 16 15 13 11 10 9 10 9 9 7 7 9 10 10 11 12 14 17 19 19 18 17 17 16 16 15 14 12 11 10 6 5 3 1 2 3 4 5 5 6 6 7 7
18 17 16 14 12 11 11 11 10 9 7 6 8 10 11 12 13 14 16 18 17 17 16 17 16 16 15 13 11 10 9 7 6 4 2 0 2 4 5 5 5 6 6 7
19 18 17 15 14 13 13 12 12 11 8 6 8 10 12 12 12 14 16 16 16 15 15 15 16 15 15 13 10 9 8 7 6 4 3 1 1 3 5 6 6 6 6 7
21 19 18 16 15 13 13 14 13 13 10 9 9 11 12 12 12 15 15 15 14 13 14 15 15 14 14 11 9 8 8 8 7 5 3 2 1 2 3 5 5 6 6 7
21 20 19 18 16 15 14 14 14 14 13 11 11 11 12 13 15 16 15 14 13 13 13 13 13 13 12 10 9 8 8 7 7 5 5 3 2 2 3 4 5 6 6 6
23 21 20 19 18 16 15 15 15 15 15 14 13 13 14 15 16 16 16 15 13 13 13 13 13 12 11 10 8 8 8 8 7 6 6 5 3 3 4 4 4 5 6 6
24 23 22 21 19 16 15 15 16 16 16 16 16 16 16 16 16 16 16 15 14 13 13 13 12 11 10 9 7 8 8 9 8 7 6 5 4 3 3 4 4 5 6 6
25 25 24 22 19 16 15 16 17 17 17 17 18 18 18 18 17 17 17 17 16 14 15 12 11 11 10 9 8 8 9 9 8 7 7 6 5 4 4 4 5 6 7 7
27 27 24 23 21 19 18 17 18 18 18 19 20 19 19 18 18 18 18 17 17 15 14 12 11 11 11 10 9 9 9 9 9 8 7 7 6 5 5 5 6 6 7 8
27 28 26 24 22 21 20 18 17 18 19 20 20 19 19 19 19 19 19 19 19 16 14 14 13 12 11 11 10 10 10 9 9 9 8 7 7 6 6 7 8 8 8 9
29 28 27 25 25 25 23 21 19 18 18 20 21 21 21 20 20 20 20 20 19 18 18 17 15 14 13 12 11 11 11 11 10 10 10 9 9 8 8 8 8 8 9 10
31 30 29 27 26 28 27 26 23 20 19 20 20 21 22 21 21 21 21 22 22 20 19 17 15 14 13 12 11 11 12 11 11 10 10 10 11 10 9 10 9 10 10 11
32 31 30 29 28 29 29 27 26 24 22 21 21 22 23 24 24 23 23 23 22 20 20 18 16 15 14 13 12 12 12 12 11 11 11 11 11 11 11 11 11 12 12 12
33 31 30 29 30 31 29 28 29 28 26 25 25 24 26 26 26 24 24 23 23 22 22 21 18 17 15 14 13 13 13 13 13 13 12 13 13 12 13 13 13 13 13 13
35 33 32 30 30 31 30 31 32 31 30 28 28 27 27 27 26 25 25 24 23 23 23 21 20 19 17 16 16 16 15 15 15 14 14 14 14 14 14 14 15 15 16 16
35 34 32 32 32 32 32 32 32 33 33 32 30 29 27 26 26 26 25 24 24 24 22 21 21 20 19 18 18 18 17 17 16 16 16 16 17 17 18 17 17 18 18 19
35 33 32 31 32 32 32 33 34 34 34 32 31 30 28 26 26 25 26 26 25 24 23 22 22 21 21 20 20 20 20 19 18 18 18 19 19 20 20 20 20 21 21 21
35 34 32 32 33 33 32 32 34 35 33 32 31 30 27 27 26 26 26 26 25 25 25 24 23 22 22 22 21 21 21 21 20 20 20 21 21 21 21 22 22 22 23 23
36 35 34 33 34 33 33 34 34 34 33 31 30 27 27 27 26 26 25 25 25 25 25 25 24 24 24 23 22 22 22 22 22 22 22 22 23 23 23 24 24 24 25 25
36 35 35 34 33 33 32 33 34 34 33 31 30 29 27 26 27 27 26 25 25 26 27 27 27 25 25 24 24 24 23 23 23 24 24 24 25 25 25 26 26 26 26 26
37 35 34 34 32 31 31 31 31 31 31 31 31 29 28 26 27 27 26 26 26 27 28 27 26 26 25 25 25 25 25 25 25 26 26 26 26 26 27 27 27 28 27 27
37 35 34 33 32 31 31 30 30 30 30 30 31 31 30 29 29 28 27 27 27 28 28 28 27 27 27 27 28 28 27 27 27 27 27 27 27 27 27 27 28 28 28 28
Wind_Direction
199 197 196 193 192 186 190 180 196 258 290 307 318 323 330 338 347 352 351 351 358 358 356 355 354 355 355 352 351 348 341 334 316 308 304 225 203 214 217 215 215 211 211 211
206 203 200 201 202 205 199 196 213 246 272 289 300 310 320 332 340 344 345 349 352 352 352 352 352 353 353 353 352 352 347 334 313 306 281 230 221 211 204 213 218 217 216 213
213 211 211 209 212 214 207 207 225 247 270 282 289 297 313 333 340 342 344 347 348 345 351 353 353 352 355 354 355 354 352 350 327 309 258 235 218 208 211 217 218 217 215 216
216 217 219 218 218 224 215 217 233 245 258 274 286 295 309 321 329 337 342 343 346 346 349 350 351 351 353 354 357 358 358 0 357 345 288 226 209 214 214 216 218 220 222 223
219 222 224 224 223 224 225 228 237 244 257 271 278 287 296 308 322 332 338 340 343 344 345 346 348 347 349 350 353 357 2 13 10 359 346 218 218 213 210 216 225 226 226 231
225 226 225 226 228 226 225 230 235 238 249 268 276 283 293 304 317 328 334 337 338 339 342 346 348 347 348 348 350 359 7 14 13 15 24 2 223 216 217 225 231 228 229 238
227 229 229 229 231 230 229 233 233 233 238 254 274 289 297 306 315 324 331 335 337 339 343 346 348 347 348 352 357 3 10 14 14 17 11 354 245 213 223 232 233 238 244 251
226 226 230 231 234 234 234 236 237 238 239 253 270 288 299 303 312 313 321 331 339 341 341 344 348 348 349 355 5 9 13 12 12 18 14 6 325 229 232 237 245 249 254 259
225 227 231 233 234 234 235 236 237 240 243 247 264 283 293 301 306 311 316 328 341 341 342 343 344 349 353 358 4 7 7 7 6 1 349 342 309 273 260 254 249 251 259 267
226 227 228 232 234 232 233 237 238 241 242 245 256 275 290 304 309 312 323 332 336 340 343 342 343 348 351 354 357 358 1 1 356 351 346 341 321 298 280 271 259 252 261 266
224 226 225 226 229 229 230 234 239 243 247 248 255 268 281 294 301 308 318 325 332 338 340 342 344 346 347 349 349 347 352 354 356 351 351 344 328 310 297 283 275 268 270 268
221 225 225 226 228 229 233 237 241 244 245 250 256 266 279 292 299 306 314 324 329 329 332 339 345 346 345 346 346 344 345 347 347 348 346 345 338 316 304 288 277 275 274 275
217 222 222 223 226 229 233 235 239 242 245 248 252 262 276 290 297 302 307 316 321 322 328 332 337 338 337 336 339 337 338 340 340 341 342 340 337 326 312 301 290 283 280 281
217 222 223 224 228 232 235 233 237 242 247 249 252 258 267 280 289 295 302 307 313 319 327 330 328 326 329 330 331 331 331 329 331 332 333 330 329 320 311 305 298 292 290 288
219 222 223 222 224 229 235 236 237 242 248 252 249 252 262 271 282 289 298 303 310 317 321 322 321 316 319 323 324 326 328 327 325 323 321 323 317 313 306 304 303 299 296 296
222 226 226 225 225 229 234 238 239 243 247 251 249 250 257 265 274 282 291 298 301 307 312 314 314 312 312 317 318 318 320 320 322 321 321 318 319 314 308 305 307 305 301 300
227 229 229 228 227 231 234 237 241 244 245 250 255 255 258 261 268 277 286 292 297 300 306 307 308 307 304 307 309 309 312 314 316 315 314 317 317 319 320 315 309 307 306 306
231 232 232 230 229 231 235 235 238 242 245 251 254 257 260 264 269 275 283 289 295 298 301 301 301 301 303 305 307 304 305 307 309 311 313 315 316 313 314 314 313 314 313 309
233 233 234 234 233 233 233 235 237 241 244 249 253 257 261 263 267 273 279 286 292 296 298 297 298 299 300 302 303 302 300 301 300 304 308 310 311 309 308 308 309 310 309 309
235 235 235 234 234 233 232 233 235 240 244 248 252 256 258 261 266 273 279 283 288 291 292 291 292 294 295 295 296 296 296 295 294 297 298 300 301 303 305 304 304 306 306 307
235 235 234 235 235 234 233 233 235 239 246 251 254 256 259 261 266 272 278 282 285 287 289 290 290 290 290 290 292 292 292 292 291 293 293 294 296 298 300 301 302 303 303 303
235 236 236 235 235 234 234 235 237 242 247 253 257 255 257 260 265 270 273 278 281 284 287 288 288 287 287 287 288 289 291 292 291 290 291 292 293 296 298 299 300 302 302 301
233 235 236 236 238 238 236 237 240 243 247 251 254 252 254 259 266 271 274 277 280 282 285 286 286 286 285 285 287 288 289 290 291 292 291 291 293 295 297 299 300 300 300 299
234 235 236 236 237 238 238 238 240 243 247 250 253 255 257 261 266 270 272 275 279 280 282 284 284 285 285 285 286 288 289 290 290 290 291 291 292 294 296 298 297 298 298 298
232 235 236 237 238 239 239 240 241 244 249 251 253 255 259 261 265 269 273 276 278 278 281 282 283 285 283 284 285 286 287 288 289 289 290 292 294 294 294 295 296 297 297 296
231 234 236 237 238 240 243 245 246 247 249 250 252 256 259 263 266 268 271 275 277 279 280 280 280 281 282 284 285 286 287 288 288 288 289 290 292 293 295 295 295 295 294 294
Height
5933 5936 5937 5938 5939 5940 5940 5940 5941 5941 5940 5940 5939 5937 5936 5934 5933 5932 5930 5928 5925 5923 5920 5917 5914 5911 5908 5905 5903 5900 5898 5896 5895 5895 5895 5895 5896 5897 5898 5898 5899 5900 5901 5902
5933 5934 5936 5936 5937 5938 5939 5939 5940 5940 5939 5939 5938 5937 5935 5934 5932 5932 5930 5928 5925 5923 5920 5917 5914 5911 5908 5905 5902 5899 5897 5895 5894 5894 5894 5894 5895 5895 5897 5898 5898 5899 5900 5900
5930 5933 5933 5934 5935 5937 5938 5938 5938 5938 5938 5937 5937 5936 5935 5934 5932 5931 5930 5928 5925 5922 5920 5917 5914 5911 5907 5904 5901 5899 5896 5894 5893 5893 5893 5894 5894 5895 5896 5897 5898 5898 5899 5899
5927 5929 5931 5932 5933 5934 5936 5936 5936 5936 5937 5937 5936 5935 5934 5932 5931 5930 5929 5927 5925 5922 5919 5916 5913 5910 5907 5903 5901 5898 5896 5894 5893 5893 5892 5893 5893 5894 5895 5896 5896 5897 5897 5898
5924 5926 5928 5929 5931 5932 5934 5934 5935 5935 5935 5935 5934 5934 5933 5931 5930 5929 5928 5926 5924 5921 5918 5915 5912 5909 5906 5903 5900 5898 5896 5894 5893 5892 5891 5892 5892 5893 5894 5894 5895 5895 5896 5896
5921 5922 5924 5927 5928 5930 5931 5932 5933 5933 5933 5934 5933 5932 5931 5929 5929 5928 5927 5925 5923 5920 5917 5914 5911 5908 5905 5902 5900 5897 5896 5894 5893 5892 5891 5891 5891 5891 5892 5893 5893 5893 5894 5894
5917 5919 5921 5923 5925 5927 5928 5930 5931 5931 5931 5931 5930 5929 5929 5928 5928 5927 5925 5923 5921 5918 5916 5913 5910 5907 5904 5901 5899 5898 5896 5894 5893 5891 5890 5890 5890 5890 5890 5891 5891 5891 5892 5893
5913 5916 5918 5920 5922 5924 5925 5927 5929 5929 5929 5929 5928 5927 5927 5926 5926 5925 5923 5921 5919 5917 5915 5912 5909 5906 5904 5901 5899 5898 5896 5895 5893 5891 5890 5889 5889 5889 5890 5890 5890 5890 5890 5891
5909 5913 5915 5916 5918 5921 5922 5923 5925 5926 5926 5926 5925 5925 5924 5924 5923 5922 5921 5919 5918 5916 5914 5911 5908 5906 5903 5901 5899 5898 5896 5895 5893 5892 5890 5889 5889 5889 5889 5888 5888 5888 5889 5889
5904 5908 5910 5913 5915 5917 5919 5920 5921 5922 5923 5923 5923 5923 5923 5921 5921 5920 5918 5918 5916 5914 5912 5910 5907 5905 5903 5901 5899 5898 5896 5894 5892 5891 5890 5889 5888 5888 5887 5887 5887 5887 5887 5887
5899 5903 5906 5908 5910 5913 5915 5917 5918 5919 5920 5920 5920 5922 5920 5920 5919 5918 5917 5915 5914 5911 5910 5908 5906 5904 5902 5900 5898 5897 5895 5893 5892 5890 5889 5888 5887 5886 5886 5885 5885 5885 5885 5885
5894 5897 5901 5904 5907 5909 5911 5913 5914 5916 5917 5917 5917 5920 5917 5917 5916 5915 5915 5914 5913 5911 5909 5907 5905 5903 5901 5899 5898 5896 5895 5893 5891 5889 5888 5887 5886 5885 5884 5884 5883 5883 5883 5883
5889 5892 5897 5900 5904 5905 5907 5909 5910 5912 5913 5913 5913 5916 5914 5913 5913 5912 5912 5911 5910 5909 5907 5905 5904 5902 5900 5898 5897 5895 5893 5891 5890 5888 5887 5885 5884 5884 5883 5882 5881 5881 5880 5880
5885 5888 5893 5897 5899 5901 5902 5905 5906 5907 5908 5909 5910 5911 5910 5910 5910 5909 5909 5909 5907 5906 5905 5903 5902 5901 5899 5897 5896 5894 5892 5890 5888 5887 5885 5884 5883 5882 5881 5880 5879 5878 5878 5877
5879 5883 5887 5891 5894 5896 5898 5900 5901 5902 5903 5905 5906 5906 5907 5907 5907 5906 5906 5906 5905 5904 5903 5902 5900 5899 5897 5896 5894 5892 5890 5888 5887 5885 5883 5882 5881 5879 5878 5878 5877 5876 5875 5874
5874 5878 5882 5887 5889 5891 5893 5895 5896 5898 5899 5900 5901 5902 5903 5903 5904 5903 5903 5903 5902 5901 5901 5899 5898 5897 5895 5893 5892 5890 5888 5887 5885 5883 5880 5879 5879 5877 5876 5875 5874 5873 5872 5871
5868 5873 5877 5881 5884 5886 5888 5891 5892 5894 5894 5895 5896 5898 5898 5899 5900 5900 5900 5899 5897 5897 5896 5894 5894 5894 5892 5891 5889 5887 5886 5884 5882 5881 5879 5878 5877 5875 5874 5873 5871 5870 5868 5867
5863 5867 5871 5875 5879 5880 5885 5886 5887 5888 5889 5890 5891 5892 5893 5894 5895 5895 5895 5895 5894 5893 5892 5891 5890 5890 5889 5887 5885 5884 5883 5882 5880 5878 5877 5876 5874 5873 5871 5870 5869 5867 5865 5864
5857 5861 5865 5868 5871 5874 5878 5879 5881 5882 5883 5885 5886 5888 5889 5889 5890 5890 5890 5890 5890 5889 5888 5887 5886 5885 5884 5883 5882 5880 5879 5878 5876 5875 5874 5872 5871 5870 5868 5867 5865 5864 5862 5860
5850 5854 5858 5861 5864 5867 5872 5873 5875 5877 5877 5880 5881 5882 5883 5884 5885 5886 5885 5885 5885 5884 5883 5883 5882 5881 5880 5879 5878 5876 5875 5874 5872 5871 5870 5868 5867 5866 5864 5863 5861 5860 5858 5855
5843 5847 5850 5854 5857 5860 5864 5866 5869 5872 5873 5875 5876 5877 5877 5879 5880 5880 5880 5880 5880 5879 5878 5877 5876 5875 5874 5873 5872 5871 5870 5869 5868 5867 5865 5864 5863 5861 5860 5858 5856 5854 5852 5850
5836 5840 5844 5847 5850 5855 5857 5860 5863 5864 5867 5869 5869 5870 5871 5873 5874 5874 5874 5874 5874 5873 5872 5870 5869 5868 5868 5867 5866 5866 5864 5863 5862 5861 5860 5859 5858 5856 5854 5852 5851 5849 5847 5844
5829 5834 5837 5840 5844 5847 5850 5853 5856 5858 5861 5863 5863 5863 5865 5867 5868 5868 5868 5867 5867 5867 5866 5864 5863 5862 5861 5861 5860 5859 5859 5858 5856 5855 5854 5853 5851 5850 5848 5846 5844 5842 5840 5838
5822 5826 5829 5833 5835 5839 5843 5846 5849 5852 5854 5856 5857 5858 5859 5860 5861 5862 5861 5861 5861 5860 5859 5858 5857 5856 5855 5855 5854 5853 5852 5852 5850 5849 5848 5846 5844 5842 5841 5839 5837 5835 5833 5831
5815 5819 5822 5826 5829 5832 5836 5839 5842 5845 5847 5849 5850 5852 5853 5854 5855 5855 5855 5854 5854 5853 5852 5851 5850 5849 5849 5848 5848 5847 5846 5845 5844 5842 5841 5839 5837 5836 5834 5832 5829 5827 5825 5823
5809 5813 5816 5819 5823 5827 5830 5832 5835 5838 5839 5841 5843 5845 5846 5847 5847 5847 5847 5847 5847 5846 5845 5844 5844 5843 5842 5841 5840 5839 5838 5837 5836 5835 5833 5832 5830 5828 5826 5824 5822 5819 5817 5815